EUTELSAT 9B

Last updated on Fri Dec 19 2025 00:02:51 GMT+0000 (Coordinated Universal Time)

1 41310U 16005A 25352.55577462 .00000087 00000+0 00000+0 0 9992 2 41310 0.0585 70.4318 0004462 203.8927 22.1605 1.00272140 36304
UTC large
Height (km)
Speed (km/s)
/
Latitude / Longitude
Inclination (degrees)
Orbital Period (minutes)
Azimuth
Elevation
Range (km)
Doppler Factor

Next 0 passes for location: London (51.5072 / 0.1276)

Sorry there are no passes over London.